Regional Weather Roundup
Issued by NWS

Home | Current Version | Previous Version | Graphics & Text | Print | Product List | Glossary On
Versions: 1 2 3 4 5 6 7 8 9 10 11 12 13 14 15 16 17 18 19 20 21 22 23 24 25 26 27 28 29 30 31 32 33 34 35 36 37 38 39 40 41 42 43 44 45 46 47 48 49 50
000
ASUS43 KBIS 071602
RWRND

NORTH DAKOTA REGIONAL WEATHER ROUNDUP
NATIONAL WEATHER SERVICE BISMARCK ND
1000 AM CST WED DEC 07 2016

NOTE: "FAIR" INDICATES FEW OR NO CLOUDS BELOW 12,000 FEET WITH NO
SIGNIFICANT WEATHER AND/OR OBSTRUCTIONS TO VISIBILITY.


NDZ001>003-009>011-017-071700-
NORTHWEST NORTH DAKOTA

CITY           SKY/WX    TMP DP  RH WIND       PRES   REMARKS
WILLISTON      CLOUDY     0  -8  69 NW10      30.39R WCI -16
MINOT          CLOUDY     5   0  79 W31G40    30.17R WCI -19
MINOT AFB      SNOW       3  -1  81 NW35G44   30.16R VSB 1/2 WCI -23
$$

NDZ018>021-031>035-040>046-071700-
SOUTHWEST NORTH DAKOTA

CITY           SKY/WX    TMP DP  RH WIND       PRES   REMARKS
BISMARCK       CLOUDY     4  -1  80 NW22G37   30.26R WCI -18
DICKINSON      PTSUNNY   -2  -7  79 NW28G35   30.26R HAZE    WCI -28
GARRISON         N/A      1  -4  79 NW36G46   30.20R WCI -26
HETTINGER ARPT MOSUNNY    2  -4  76 NW29G35   30.29R WCI -23
$$

NDZ004>008-012>016-024-026-027-054-071700-
NORTHEAST NORTH DAKOTA

CITY           SKY/WX    TMP DP  RH WIND       PRES   REMARKS
GRAND FORKS    CLOUDY    16  10  77 NW26G37   29.94R BLWGSNOWWCI  -3
GRND FRKS AFB  LGT SNOW  15   9  76 NW24G31   29.95R WCI  -4
DEVILS LAKE    SNOW       8   5  87 NW32G39   30.00R VSB 1/2 WCI -16
$$

NDZ022-023-025-028>030-036>039-047>053-071700-
SOUTHEAST NORTH DAKOTA

CITY           SKY/WX    TMP DP  RH WIND       PRES   REMARKS
FARGO          LGT SNOW  14   7  73 W28G35    30.01S WCI  -6
JAMESTOWN      LGT SNOW   8   4  83 NW31G44   30.07R VSB 3/4 WCI -15
$$





USA.gov is the U.S. government's official web portal to all federal, state and local government web resources and services.